Location: Unspecified
(31.7565°N, 0.0000°E)
Time: 03:11:54
(UTC+00:00)

Tiros 1 despin weight - All Passes

Search period start: 04 April 2026 00:00
Search period end: 14 April 2026 00:00
Orbit: 555 x 593 km, 48.2° (Epoch: 29 March)

Date Brightness Start Highest point End Pass type
(mag) Time Alt. Az. Time Alt. Az. Time Alt. Az.
4 Apr - 02:08:20 10° NNW 02:11:25 18° NNE 02:14:29 10° ENE visible
4 Apr - 03:48:04 10° NW 03:52:29 85° NE 03:56:52 10° SE visible
4 Apr - 05:30:58 10° WSW 05:32:32 12° SW 05:34:06 10° SSW daylight
4 Apr - 19:23:20 10° SSW 19:27:20 38° SE 19:31:23 10° ENE visible
4 Apr - 21:04:03 10° W 21:07:56 31° NNW 21:11:50 10° NNE visible
4 Apr - 22:48:25 10° NNW 22:49:36 11° NNW 22:50:47 10° N night (unlit)
5 Apr - 02:10:06 10° NNW 02:13:43 24° NNE 02:17:20 10° E visible
5 Apr - 03:50:11 10° WNW 03:54:31 58° SW 03:58:48 10° SE visible
5 Apr - 19:25:03 10° SW 19:29:18 66° SE 19:33:38 10° NE visible
5 Apr - 21:06:45 10° W 21:10:10 22° NNW 21:13:37 10° NNE visible
6 Apr - 00:32:49 10° N 00:34:20 11° NNE 00:35:51 10° NE night (unlit)
6 Apr - 02:11:53 10° NW 02:15:57 34° NNE 02:19:58 10° E night (unlit)
6 Apr - 03:52:29 10° WNW 03:56:28 34° SW 04:00:25 10° SSE visible
6 Apr - 17:49:10 10° SSE 17:51:14 13° SE 17:53:20 10° E daylight
6 Apr - 19:27:02 10° SW 19:31:20 74° NW 19:35:41 10° NE visible
6 Apr - 21:09:39 10° WNW 21:12:28 17° NNW 21:15:19 10° NNE visible
7 Apr - 00:34:21 10° NNW 00:36:45 14° NNE 00:39:08 10° NE night (unlit)
7 Apr - 02:13:46 10° NW 02:18:05 53° NE 02:22:22 10° ESE night (unlit)
7 Apr - 03:55:07 10° W 03:58:21 20° SW 04:01:35 10° S visible
7 Apr - 17:49:43 10° S 17:53:05 23° SE 17:56:30 10° ENE daylight
7 Apr - 19:29:17 10° WSW 19:33:24 46° NW 19:37:37 10° NE visible
7 Apr - 21:12:45 10° NW 21:14:50 13° NNW 21:16:55 10° NNE visible
8 Apr - 00:36:00 10° NNW 00:39:04 18° NNE 00:42:09 10° ENE night (unlit)
8 Apr - 02:15:43 10° NW 02:20:08 86° NE 02:24:32 10° SE night (unlit)
8 Apr - 03:58:39 10° WSW 04:00:12 12° SW 04:01:43 10° SSW night (unlit)
8 Apr - 17:51:01 10° SSW 17:54:58 38° SE 17:59:00 10° ENE daylight
8 Apr - 19:31:45 10° W 19:35:34 30° NNW 19:39:27 10° NNE visible
8 Apr - 21:16:10 10° NNW 21:17:14 11° NNW 21:18:18 10° N visible
9 Apr - 00:37:42 10° NNW 00:41:20 24° NNE 00:44:58 10° E night (unlit)
9 Apr - 02:17:48 10° WNW 02:22:08 57° SW 02:26:26 10° SE night (unlit)
9 Apr - 17:52:41 10° SW 17:56:55 67° SE 18:01:13 10° NE daylight
9 Apr - 19:34:25 10° WNW 19:37:47 22° NNW 19:41:11 10° NNE visible
9 Apr - 23:00:26 10° N 23:01:56 11° NNE 23:03:27 10° NE night (unlit)
10 Apr - 00:39:28 10° NW 00:43:31 35° NNE 00:47:34 10° E night (unlit)
10 Apr - 02:20:05 10° WNW 02:24:03 33° SW 02:28:00 10° SSE night (unlit)
10 Apr - 16:16:46 10° SSE 16:18:49 13° SE 16:20:53 10° E daylight
10 Apr - 17:54:39 10° SW 17:58:54 73° NW 18:03:14 10° NE daylight
10 Apr - 19:37:17 10° WNW 19:40:03 16° NNW 19:42:50 10° NNE visible
10 Apr - 23:01:55 10° NNW 23:04:19 14° NNE 23:06:41 10° NE night (unlit)
11 Apr - 00:41:18 10° NW 00:45:37 53° NE 00:49:56 10° ESE night (unlit)
11 Apr - 02:22:41 10° W 02:25:54 20° SW 02:29:07 10° S night (unlit)
11 Apr - 16:17:17 10° S 16:20:38 23° SE 16:24:01 10° ENE daylight
11 Apr - 17:56:52 10° WSW 18:00:57 45° NW 18:05:08 10° NE daylight
11 Apr - 19:40:22 10° NW 19:42:23 13° NNW 19:44:23 10° N visible
11 Apr - 23:03:32 10° NNW 23:06:37 18° NNE 23:09:41 10° ENE night (unlit)
12 Apr - 00:43:14 10° NW 00:47:39 86° NE 00:52:03 10° SE night (unlit)
12 Apr - 02:26:12 10° WSW 02:27:42 12° SW 02:29:12 10° SSW night (unlit)
12 Apr - 16:18:33 10° SSW 16:22:30 39° SE 16:26:29 10° ENE daylight
12 Apr - 17:59:18 10° W 18:03:05 30° NNW 18:06:54 10° NNE daylight
12 Apr - 19:43:49 10° NNW 19:44:45 11° NNW 19:45:41 10° N visible
12 Apr - 23:05:12 10° NNW 23:08:49 25° NNE 23:12:27 10° E night (unlit)
13 Apr - 00:45:17 10° WNW 00:49:36 57° SW 00:53:54 10° SE night (unlit)
13 Apr - 16:20:12 10° SW 16:24:24 68° SE 16:28:39 10° NE daylight
13 Apr - 18:01:56 10° WNW 18:05:15 21° NNW 18:08:36 10° NNE daylight
13 Apr - 21:27:56 10° N 21:29:24 11° NNE 21:30:52 10° NE visible
13 Apr - 23:06:56 10° NW 23:10:58 35° NNE 23:15:01 10° E night (unlit)
